Weather History for Corpus Christi, TX

Change the Weather History Date:

Thursday, September 25, 2014

  Actual Average Record
Temperature  
Mean Temperature 81 °F 79 °F  
Max Temperature 89 °F 88 °F 103 °F (2011)
Min Temperature 72 °F 70 °F 57 °F (1989)
Degree Days  
Heating Degree Days 0 0  
Month to date heating degree days 0 0  
Since 1 July heating degree days 0 0  
Cooling Degree Days 16 14  
Month to date cooling degree days 439 414  
Year to date cooling degree days 3142 2975  
Growing Degree Days 30 (Base 50)    
Moisture  
Dew Point 70 °F    
Average Humidity 70    
Maximum Humidity 79    
Minimum Humidity 61    
Precipitation  
Precipitation 0.04 in 0.15 in 4.17 in (1913)
Month to date precipitation 4.30 4.26  
Year to date precipitation 18.14 23.60  
Snow  
Snow 0.00 in - - ()
Month to date snowfall 0.0  
Since 1 July snowfall 0.0  
Since 1 September snowfall 0.0  
Snow Depth 0.00 in    
Sea Level Pressure  
Sea Level Pressure 30.03 in    
Wind  
Wind Speed 11 mph (ENE)    
Max Wind Speed 23 mph    
Max Gust Speed 29 mph    
Visibility 10 miles    
Events Rain , Thunderstorm    
T = Trace of Precipitation, MM = Missing Value Source: NWS Daily Summary

Daily Weather History Graph

Daily Weather History Graph

Search for Another Location

Airport:

Trip Planner

Search our weather history database for the weather conditions in past years. The results will help you decide how hot, cold, wet, or windy it might be!

Date:

Astronomy

Sep. 25, 2014 Rise Set
Actual Time 7:19 AM CDT 7:22 PM CDT
Civil Twilight 6:56 AM CDT 7:46 PM CDT
Nautical Twilight 6:29 AM CDT 8:13 PM CDT
Astronomical Twilight 6:02 AM CDT 8:40 PM CDT
Moon 8:30 AM CDT (9/25) 8:18 PM CDT (9/25)
Length of Visible Light 12h 49m
Length of Day
12h 02m
New Moon, 2% of the Moon is Illuminated
Sep 25
New Moon
Oct 1
First Quarter
Oct 8
Full
Oct 15
Last Quarter
Oct 23
New

Hourly Weather History & Observations

Time (CDT) Temp. Heat Index Dew Point Humidity Pressure Visibility Wind Dir Wind Speed Gust Speed Precip Events Conditions
12:51 AM 77.0 °F - 68.0 °F 74% 30.04 in 10.0 mi NE 9.2 mph - N/A   Overcast
1:51 AM 77.0 °F - 66.9 °F 71% 30.04 in 10.0 mi NE 11.5 mph - N/A   Overcast
2:51 AM 75.9 °F - 68.0 °F 76% 30.05 in 10.0 mi NE 9.2 mph - N/A   Mostly Cloudy
3:51 AM 73.0 °F - 64.9 °F 76% 30.04 in 10.0 mi NNE 8.1 mph - N/A   Scattered Clouds
4:51 AM 72.0 °F - 64.9 °F 78% 30.04 in 10.0 mi North 6.9 mph - N/A   Scattered Clouds
5:51 AM 72.0 °F - 64.9 °F 78% 30.04 in 10.0 mi North 6.9 mph - N/A   Mostly Cloudy
6:51 AM 72.0 °F - 64.9 °F 78% 30.04 in 10.0 mi North 8.1 mph - N/A   Mostly Cloudy
7:51 AM 72.0 °F - 64.9 °F 78% 30.05 in 10.0 mi North 6.9 mph - N/A   Mostly Cloudy
8:51 AM 77.0 °F - 64.9 °F 66% 30.06 in 10.0 mi NNE 12.7 mph - N/A   Mostly Cloudy
9:51 AM 79.0 °F - 66.9 °F 66% 30.05 in 10.0 mi North 9.2 mph - N/A   Mostly Cloudy
10:51 AM 84.9 °F 89.4 °F 70.0 °F 61% 30.06 in 10.0 mi NNE 13.8 mph - N/A   Mostly Cloudy
11:51 AM 84.9 °F 91.4 °F 73.0 °F 67% 30.06 in 10.0 mi NE 11.5 mph - N/A   Mostly Cloudy
12:51 PM 87.1 °F 94.5 °F 73.0 °F 63% 30.06 in 10.0 mi ENE 12.7 mph - N/A   Mostly Cloudy
1:51 PM 84.9 °F 92.1 °F 73.9 °F 69% 30.02 in 10.0 mi East 19.6 mph 27.6 mph N/A   Mostly Cloudy
2:21 PM 86.0 °F 93.8 °F 73.9 °F 67% 30.01 in 10.0 mi East 13.8 mph - N/A Thunderstorm Mostly Cloudy
2:51 PM 88.0 °F 96.5 °F 73.9 °F 63% 30.01 in 10.0 mi ENE 13.8 mph - N/A Thunderstorm Mostly Cloudy
3:00 PM 86.0 °F 93.0 °F 73.0 °F 65% 30.01 in 10.0 mi ENE 11.5 mph - N/A   Mostly Cloudy
3:51 PM 84.0 °F 91.2 °F 73.9 °F 72% 30.00 in 10.0 mi East 17.3 mph - N/A   Mostly Cloudy
4:51 PM 82.0 °F 87.4 °F 73.0 °F 74% 29.99 in 10.0 mi East 20.7 mph 27.6 mph N/A   Mostly Cloudy
5:51 PM 82.0 °F 86.3 °F 71.1 °F 69% 29.99 in 10.0 mi East 18.4 mph 25.3 mph N/A   Mostly Cloudy
6:51 PM 81.0 °F 85.8 °F 73.0 °F 77% 30.00 in 10.0 mi East 16.1 mph - N/A   Mostly Cloudy
7:51 PM 79.0 °F - 72.0 °F 79% 29.99 in 10.0 mi East 12.7 mph - N/A   Mostly Cloudy
8:51 PM 78.1 °F - 70.0 °F 76% 29.99 in 10.0 mi East 6.9 mph - N/A   Mostly Cloudy
9:35 PM 78.1 °F - 71.1 °F 79% 30.02 in 10.0 mi East 6.9 mph - N/A   Mostly Cloudy
9:48 PM 78.8 °F - 71.6 °F 78% 30.02 in 10.0 mi East 8.1 mph - N/A   Mostly Cloudy
9:51 PM 79.0 °F - 71.1 °F 77% 30.02 in 10.0 mi East 8.1 mph - N/A   Mostly Cloudy
10:30 PM 78.1 °F - 72.0 °F 81% 30.03 in 10.0 mi ENE 4.6 mph - 0.00 in Rain Light Rain
10:51 PM 77.0 °F - 72.0 °F 84% 30.03 in 10.0 mi ENE 5.8 mph - 0.02 in Rain Light Rain
11:04 PM 77.0 °F - 72.0 °F 84% 30.03 in 10.0 mi East 3.5 mph - 0.01 in   Scattered Clouds
11:51 PM 75.9 °F - 72.0 °F 87% 30.01 in 10.0 mi NNE 5.8 mph - 0.01 in   Mostly Cloudy